TimeCST,TemperatureF,Dew PointF,Humidity,Sea Level PressureIn,VisibilityMPH,Wind Direction,Wind SpeedMPH,Gust SpeedMPH,PrecipitationIn,Events,Conditions,WindDirDegrees,DateUTC
12:15 AM,15.8,3.2,58,30.09,10.0,West,16.1,23.0,N/A,,Overcast,280,2013-01-14 06:15:00
12:35 AM,14.0,3.2,62,30.09,10.0,West,18.4,21.9,N/A,,Mostly Cloudy,280,2013-01-14 06:35:00
12:55 AM,14.0,3.2,62,30.11,10.0,West,12.7,20.7,N/A,,Partly Cloudy,280,2013-01-14 06:55:00
1:15 AM,12.2,1.4,62,30.12,10.0,WNW,16.1,19.6,N/A,,Scattered Clouds,290,2013-01-14 07:15:00
1:35 AM,12.2,1.4,62,30.13,10.0,West,12.7,24.2,N/A,,Partly Cloudy,280,2013-01-14 07:35:00
1:55 AM,12.2,3.2,67,30.15,10.0,WNW,13.8,18.4,N/A,,Clear,290,2013-01-14 07:55:00
2:15 AM,12.2,1.4,62,30.16,10.0,WNW,13.8,20.7,N/A,,Clear,290,2013-01-14 08:15:00
2:55 AM,12.2,3.2,67,30.19,10.0,West,10.4,-,N/A,,Scattered Clouds,270,2013-01-14 08:55:00
3:35 AM,10.4,3.2,73,30.19,10.0,West,12.7,-,N/A,,Clear,270,2013-01-14 09:35:00
4:15 AM,10.4,3.2,73,30.20,10.0,West,11.5,-,N/A,,Clear,270,2013-01-14 10:15:00
4:35 AM,10.4,1.4,67,30.21,10.0,West,12.7,17.3,N/A,,Partly Cloudy,270,2013-01-14 10:35:00
4:55 AM,10.4,1.4,67,30.22,10.0,West,9.2,-,N/A,,Clear,260,2013-01-14 10:55:00
5:15 AM,10.4,1.4,67,30.23,10.0,West,10.4,-,N/A,,Clear,260,2013-01-14 11:15:00
5:35 AM,10.4,3.2,73,30.25,10.0,West,12.7,-,N/A,,Partly Cloudy,260,2013-01-14 11:35:00
5:55 AM,8.6,1.4,73,30.26,10.0,West,12.7,-,N/A,,Clear,270,2013-01-14 11:55:00
6:15 AM,8.6,1.4,73,30.27,10.0,West,10.4,-,N/A,,Clear,270,2013-01-14 12:15:00
6:35 AM,8.6,1.4,73,30.29,10.0,West,8.1,-,N/A,,Clear,280,2013-01-14 12:35:00
6:55 AM,8.6,3.2,79,30.30,10.0,West,9.2,-,N/A,,Clear,260,2013-01-14 12:55:00
7:15 AM,8.6,1.4,73,30.32,10.0,West,9.2,-,N/A,,Clear,260,2013-01-14 13:15:00
7:35 AM,8.6,3.2,79,30.33,10.0,WSW,8.1,-,N/A,,Clear,250,2013-01-14 13:35:00
7:55 AM,10.4,3.2,73,30.34,10.0,WSW,9.2,-,N/A,,Clear,250,2013-01-14 13:55:00
8:15 AM,10.4,3.2,73,30.34,10.0,WSW,9.2,-,N/A,,Clear,250,2013-01-14 14:15:00
8:35 AM,10.4,3.2,73,30.35,10.0,West,12.7,-,N/A,,Clear,270,2013-01-14 14:35:00
8:55 AM,12.2,5.0,73,30.35,10.0,West,12.7,-,N/A,,Clear,260,2013-01-14 14:55:00
9:15 AM,12.2,5.0,73,30.36,10.0,West,12.7,-,N/A,,Clear,270,2013-01-14 15:15:00
9:35 AM,12.2,3.2,67,30.35,10.0,West,12.7,-,N/A,,Clear,270,2013-01-14 15:35:00
9:55 AM,12.2,5.0,73,30.35,10.0,West,11.5,-,N/A,,Clear,260,2013-01-14 15:55:00
10:15 AM,15.8,3.2,58,30.35,10.0,West,9.2,-,N/A,,Clear,260,2013-01-14 16:15:00
10:35 AM,15.8,3.2,58,30.35,10.0,West,9.2,-,N/A,,Clear,270,2013-01-14 16:35:00
10:55 AM,15.8,3.2,58,30.34,10.0,West,10.4,-,N/A,,Clear,280,2013-01-14 16:55:00
11:15 AM,15.8,3.2,58,30.33,10.0,West,9.2,-,N/A,,Clear,270,2013-01-14 17:15:00
11:35 AM,17.6,5.0,58,30.32,10.0,West,10.4,-,N/A,,Clear,270,2013-01-14 17:35:00
11:55 AM,17.6,5.0,58,30.32,10.0,SW,10.4,-,N/A,,Clear,230,2013-01-14 17:55:00
12:15 PM,17.6,5.0,58,30.32,10.0,WSW,12.7,16.1,N/A,,Clear,250,2013-01-14 18:15:00
12:35 PM,19.4,5.0,54,30.32,10.0,WSW,11.5,-,N/A,,Clear,250,2013-01-14 18:35:00
12:55 PM,19.4,6.8,58,30.32,10.0,SW,10.4,-,N/A,,Clear,230,2013-01-14 18:55:00
1:15 PM,19.4,5.0,54,30.31,10.0,SW,11.5,-,N/A,,Clear,230,2013-01-14 19:15:00
1:35 PM,21.2,6.8,54,30.30,10.0,WSW,9.2,-,N/A,,Clear,250,2013-01-14 19:35:00
2:15 PM,21.2,5.0,50,30.30,10.0,SW,9.2,-,N/A,,Clear,230,2013-01-14 20:15:00
2:35 PM,21.2,5.0,50,30.30,10.0,SW,9.2,-,N/A,,Clear,220,2013-01-14 20:35:00
2:55 PM,21.2,5.0,50,30.32,10.0,WSW,12.7,16.1,N/A,,Clear,250,2013-01-14 20:55:00
3:15 PM,21.2,5.0,50,30.32,10.0,WSW,13.8,17.3,N/A,,Clear,240,2013-01-14 21:15:00
3:35 PM,21.2,6.8,54,30.32,10.0,WSW,11.5,-,N/A,,Clear,240,2013-01-14 21:35:00
3:55 PM,19.4,6.8,58,30.33,10.0,WSW,16.1,21.9,N/A,,Clear,240,2013-01-14 21:55:00
4:15 PM,19.4,6.8,58,30.33,10.0,WSW,13.8,21.9,N/A,,Partly Cloudy,250,2013-01-14 22:15:00
4:35 PM,19.4,6.8,58,30.33,10.0,WSW,15.0,19.6,N/A,,Partly Cloudy,240,2013-01-14 22:35:00
4:55 PM,19.4,6.8,58,30.33,10.0,WSW,11.5,19.6,N/A,,Scattered Clouds,250,2013-01-14 22:55:00
5:15 PM,17.6,6.8,63,30.33,10.0,West,10.4,18.4,N/A,,Scattered Clouds,260,2013-01-14 23:15:00
5:35 PM,17.6,6.8,63,30.33,10.0,West,10.4,-,N/A,,Clear,260,2013-01-14 23:35:00
5:55 PM,17.6,6.8,63,30.33,10.0,West,10.4,-,N/A,,Clear,260,2013-01-14 23:55:00
6:15 PM,17.6,6.8,63,30.33,10.0,West,12.7,16.1,N/A,,Clear,260,2013-01-15 00:15:00
6:35 PM,17.6,6.8,63,30.33,10.0,West,10.4,-,N/A,,Clear,260,2013-01-15 00:35:00
6:55 PM,17.6,6.8,63,30.33,10.0,West,9.2,-,N/A,,Clear,260,2013-01-15 00:55:00
7:15 PM,17.6,6.8,63,30.34,10.0,West,10.4,-,N/A,,Clear,260,2013-01-15 01:15:00
7:35 PM,17.6,6.8,63,30.34,10.0,West,9.2,-,N/A,,Clear,260,2013-01-15 01:35:00
7:55 PM,17.6,6.8,63,30.34,10.0,West,8.1,-,N/A,,Clear,260,2013-01-15 01:55:00
8:15 PM,15.8,6.8,68,30.33,10.0,West,9.2,-,N/A,,Clear,270,2013-01-15 02:15:00
8:35 PM,15.8,6.8,68,30.34,10.0,West,8.1,-,N/A,,Clear,260,2013-01-15 02:35:00
8:55 PM,15.8,6.8,68,30.33,10.0,West,11.5,-,N/A,,Clear,270,2013-01-15 02:55:00
9:15 PM,15.8,6.8,68,30.33,10.0,West,10.4,-,N/A,,Clear,270,2013-01-15 03:15:00
9:35 PM,15.8,6.8,68,30.33,10.0,West,11.5,-,N/A,,Clear,270,2013-01-15 03:35:00
9:55 PM,15.8,8.6,73,30.33,10.0,West,9.2,-,N/A,,Clear,270,2013-01-15 03:55:00
10:15 PM,15.8,6.8,68,30.34,10.0,West,10.4,-,N/A,,Clear,270,2013-01-15 04:15:00
10:35 PM,15.8,6.8,68,30.34,10.0,West,12.7,-,N/A,,Clear,270,2013-01-15 04:35:00
10:55 PM,15.8,6.8,68,30.34,10.0,West,11.5,-,N/A,,Clear,280,2013-01-15 04:55:00
11:15 PM,15.8,6.8,68,30.34,10.0,West,9.2,-,N/A,,Clear,280,2013-01-15 05:15:00
11:35 PM,15.8,6.8,68,30.35,10.0,West,11.5,-,N/A,,Clear,280,2013-01-15 05:35:00
11:55 PM,15.8,6.8,68,30.35,10.0,West,10.4,-,N/A,,Clear,280,2013-01-15 05:55:00